Satellite: NOAA-12 Catalog number: 21263 Epoch time: 12019.82084288 Element set: 275 Inclination: 098.7388 deg RA of node: 042.1105 deg Eccentricity: 0.0012895 Arg of perigee: 275.4173 deg Mean anomaly: 084.6026 deg Mean motion: 14.25472529 rev/day Decay rate: 7.4e-07 rev/day^2 Epoch rev: 7525 Checksum: 302
Satellite: MET-3/5 Catalog number: 21655 Epoch time: 12019.33991688 Element set: 314 Inclination: 082.5558 deg RA of node: 258.0476 deg Eccentricity: 0.0013199 Arg of perigee: 342.1734 deg Mean anomaly: 017.8930 deg Mean motion: 13.17032721 rev/day Decay rate: 5.1e-07 rev/day^2 Epoch rev: 98217 Checksum: 306
Satellite: MET-2/21 Catalog number: 22782 Epoch time: 12018.89239785 Element set: 314 Inclination: 082.5496 deg RA of node: 151.7529 deg Eccentricity: 0.0021731 Arg of perigee: 211.2041 deg Mean anomaly: 148.7819 deg Mean motion: 13.83674784 rev/day Decay rate: 7.3e-07 rev/day^2 Epoch rev: 92838 Checksum: 326
Satellite: OKEAN-4 Catalog number: 23317 Epoch time: 12018.90540078 Element set: 780 Inclination: 082.5397 deg RA of node: 171.6548 deg Eccentricity: 0.0022866 Arg of perigee: 125.0736 deg Mean anomaly: 235.2629 deg Mean motion: 14.83532053 rev/day Decay rate: 1.034e-05 rev/day^2 Epoch rev: 93252 Checksum: 295
Satellite: NOAA-14 Catalog number: 23455 Epoch time: 12019.51739959 Element set: 757 Inclination: 098.8374 deg RA of node: 104.8551 deg Eccentricity: 0.0009970 Arg of perigee: 029.4058 deg Mean anomaly: 330.7675 deg Mean motion: 14.13871120 rev/day Decay rate: 2.4e-07 rev/day^2 Epoch rev: 87964 Checksum: 330
Satellite: NOAA-15 Catalog number: 25338 Epoch time: 12019.43332366 Element set: 106 Inclination: 098.6767 deg RA of node: 007.8641 deg Eccentricity: 0.0010592 Arg of perigee: 179.5719 deg Mean anomaly: 180.5503 deg Mean motion: 14.25020720 rev/day Decay rate: 1.69e-06 rev/day^2 Epoch rev: 71152 Checksum: 289
Satellite: RESURS Catalog number: 25394 Epoch time: 12019.83709279 Element set: 993 Inclination: 098.3086 deg RA of node: 016.0243 deg Eccentricity: 0.0001401 Arg of perigee: 356.7292 deg Mean anomaly: 003.3878 deg Mean motion: 14.24269488 rev/day Decay rate: 2.3e-07 rev/day^2 Epoch rev: 70314 Checksum: 299
Satellite: FENGYUN1 Catalog number: 25730 Epoch time: 12019.91639754 Element set: 518 Inclination: 098.8341 deg RA of node: 341.6137 deg Eccentricity: 0.0021493 Arg of perigee: 068.5421 deg Mean anomaly: 291.8038 deg Mean motion: 14.09166951 rev/day Decay rate: 9.09e-06 rev/day^2 Epoch rev: 65358 Checksum: 319
Satellite: OKEAN-0 Catalog number: 25860 Epoch time: 12019.86257599 Element set: 523 Inclination: 097.9144 deg RA of node: 345.7540 deg Eccentricity: 0.0001646 Arg of perigee: 041.6643 deg Mean anomaly: 318.4692 deg Mean motion: 14.74057411 rev/day Decay rate: 4.21e-06 rev/day^2 Epoch rev: 67257 Checksum: 309
Satellite: NOAA-16 Catalog number: 26536 Epoch time: 12019.45591406 Element set: 590 Inclination: 099.1163 deg RA of node: 059.1245 deg Eccentricity: 0.0011091 Arg of perigee: 142.6908 deg Mean anomaly: 217.5064 deg Mean motion: 14.12696717 rev/day Decay rate: 1.28e-06 rev/day^2 Epoch rev: 58389 Checksum: 310
Satellite: NOAA-17 Catalog number: 27453 Epoch time: 12019.54227445 Element set: 567 Inclination: 098.3551 deg RA of node: 054.0237 deg Eccentricity: 0.0010964 Arg of perigee: 233.0413 deg Mean anomaly: 126.9775 deg Mean motion: 14.24384792 rev/day Decay rate: 2.89e-06 rev/day^2 Epoch rev: 49745 Checksum: 320
Satellite: NOAA-18 Catalog number: 28654 Epoch time: 12019.51003830 Element set: 43 Inclination: 099.0263 deg RA of node: 336.5133 deg Eccentricity: 0.0013897 Arg of perigee: 213.8762 deg Mean anomaly: 146.1532 deg Mean motion: 14.11593249 rev/day Decay rate: 3.75e-06 rev/day^2 Epoch rev: 34344 Checksum: 288
Satellite: NOAA-19 Catalog number: 33591 Epoch time: 12019.48445497 Element set: 232 Inclination: 098.8506 deg RA of node: 321.2433 deg Eccentricity: 0.0014938 Arg of perigee: 084.3212 deg Mean anomaly: 275.9662 deg Mean motion: 14.11279969 rev/day Decay rate: -4.3e-07 rev/day^2 Epoch rev: 15189 Checksum: 324
/EX SB KEPS @ AMSAT $ORB12019.M Orbital Elements 12019.MISC
HR AMSAT ORBITAL ELEMENTS FOR MANNED AND MISCELLANEOUS SATELLITES FROM WA5QGD FORT WORTH,TX January 19, 2012 Send SUBSCRIBE KEPS/UNSUBSCRIBE KEPS to majordomo@amsat.org only BID: ORB12019.M TO ALL RADIO AMATEURS BT
Satellite: HUBBLE Catalog number: 20580 Epoch time: 12019.25301921 Element set: 925 Inclination: 028.4706 deg RA of node: 044.4221 deg Eccentricity: 0.0003386 Arg of perigee: 255.5194 deg Mean anomaly: 104.4972 deg Mean motion: 15.02106640 rev/day Decay rate: 1.548e-05 rev/day^2 Epoch rev: 99216 Checksum: 267
Satellite: ISS Catalog number: 25544 Epoch time: 12019.95123964 Element set: 852 Inclination: 051.6419 deg RA of node: 150.6937 deg Eccentricity: 0.0021741 Arg of perigee: 299.7667 deg Mean anomaly: 159.1394 deg Mean motion: 15.58830540 rev/day Decay rate: 1.5195e-04 rev/day^2 Epoch rev: 75474 Checksum: 331
Satellite: CO-58 Catalog number: 28895 Epoch time: 12018.63830026 Element set: 76 Inclination: 097.9370 deg RA of node: 251.3455 deg Eccentricity: 0.0016728 Arg of perigee: 263.6475 deg Mean anomaly: 096.2810 deg Mean motion: 14.60447244 rev/day Decay rate: 5.48e-06 rev/day^2 Epoch rev: 33168 Checksum: 325
Satellite: FALCON Catalog number: 30776 Epoch time: 12019.66030452 Element set: 263 Inclination: 035.4324 deg RA of node: 109.3477 deg Eccentricity: 0.0001728 Arg of perigee: 164.2745 deg Mean anomaly: 195.8026 deg Mean motion: 15.06421842 rev/day Decay rate: 3.357e-05 rev/day^2 Epoch rev: 26768 Checksum: 291
Satellite: MAST Catalog number: 31126 Epoch time: 12019.55519923 Element set: 362 Inclination: 097.8807 deg RA of node: 039.3823 deg Eccentricity: 0.0093097 Arg of perigee: 216.6993 deg Mean anomaly: 142.7796 deg Mean motion: 14.54009120 rev/day Decay rate: 3.99e-06 rev/day^2 Epoch rev: 25252 Checksum: 315
Satellite: CAPE1 Catalog number: 31130 Epoch time: 12018.70531307 Element set: 373 Inclination: 097.8873 deg RA of node: 035.0754 deg Eccentricity: 0.0100861 Arg of perigee: 231.3900 deg Mean anomaly: 127.8153 deg Mean motion: 14.52736719 rev/day Decay rate: 4.73e-06 rev/day^2 Epoch rev: 25192 Checksum: 274
Satellite: COMPASS Catalog number: 32787 Epoch time: 12019.08222452 Element set: 200 Inclination: 097.8209 deg RA of node: 083.6584 deg Eccentricity: 0.0015212 Arg of perigee: 188.3387 deg Mean anomaly: 171.7609 deg Mean motion: 14.83411905 rev/day Decay rate: 2.273e-05 rev/day^2 Epoch rev: 20155 Checksum: 287
Satellite: AAUSAT2 Catalog number: 32788 Epoch time: 12019.08186031 Element set: 190 Inclination: 097.8235 deg RA of node: 083.9655 deg Eccentricity: 0.0014988 Arg of perigee: 187.2382 deg Mean anomaly: 172.8632 deg Mean motion: 14.83681495 rev/day Decay rate: 2.360e-05 rev/day^2 Epoch rev: 20157 Checksum: 323
Satellite: DO-64 Catalog number: 32789 Epoch time: 12019.05679726 Element set: 206 Inclination: 097.8327 deg RA of node: 085.4494 deg Eccentricity: 0.0014930 Arg of perigee: 186.0137 deg Mean anomaly: 174.0896 deg Mean motion: 14.84761562 rev/day Decay rate: 2.791e-05 rev/day^2 Epoch rev: 20159 Checksum: 339
Satellite: CO-66 Catalog number: 32791 Epoch time: 12019.08571033 Element set: 194 Inclination: 097.8227 deg RA of node: 083.5096 deg Eccentricity: 0.0015475 Arg of perigee: 188.1135 deg Mean anomaly: 171.9854 deg Mean motion: 14.82934738 rev/day Decay rate: 2.015e-05 rev/day^2 Epoch rev: 20149 Checksum: 320
Satellite: RS-30 Catalog number: 32953 Epoch time: 12019.50109705 Element set: 448 Inclination: 082.5004 deg RA of node: 028.2202 deg Eccentricity: 0.0017587 Arg of perigee: 275.5231 deg Mean anomaly: 084.3848 deg Mean motion: 12.43020120 rev/day Decay rate: 1.0e-07 rev/day^2 Epoch rev: 16596 Checksum: 258
Satellite: TACSAT-3 Catalog number: 35001 Epoch time: 12019.88224883 Element set: 837 Inclination: 040.4502 deg RA of node: 283.1829 deg Eccentricity: 0.0007442 Arg of perigee: 292.0072 deg Mean anomaly: 068.0002 deg Mean motion: 15.69259585 rev/day Decay rate: 7.8579e-04 rev/day^2 Epoch rev: 15084 Checksum: 306
Satellite: PHARMSAT Catalog number: 35002 Epoch time: 12019.12487319 Element set: 770 Inclination: 040.4676 deg RA of node: 290.2498 deg Eccentricity: 0.0007387 Arg of perigee: 017.3787 deg Mean anomaly: 342.7802 deg Mean motion: 15.62627700 rev/day Decay rate: 4.3189e-04 rev/day^2 Epoch rev: 15070 Checksum: 298
Satellite: HAWKSAT1 Catalog number: 35003 Epoch time: 11276.79285837 Element set: 811 Inclination: 040.4398 deg RA of node: 174.3672 deg Eccentricity: 0.0011414 Arg of perigee: 274.3918 deg Mean anomaly: 085.3844 deg Mean motion: 16.13812532 rev/day Decay rate: 2.274821e-02 rev/day^2 Epoch rev: 13457 Checksum: 306
Satellite: CP6 Catalog number: 35004 Epoch time: 11247.64656856 Element set: 784 Inclination: 040.4403 deg RA of node: 342.9642 deg Eccentricity: 0.0002956 Arg of perigee: 038.0069 deg Mean anomaly: 322.2231 deg Mean motion: 16.41039951 rev/day Decay rate: 1.6152067e-01 rev/day^2 Epoch rev: 13013 Checksum: 285
Satellite: METEOR-M Catalog number: 35865 Epoch time: 12019.75320813 Element set: 79 Inclination: 098.6768 deg RA of node: 076.7329 deg Eccentricity: 0.0003099 Arg of perigee: 115.0103 deg Mean anomaly: 245.1410 deg Mean motion: 14.21853912 rev/day Decay rate: -1.1e-07 rev/day^2 Epoch rev: 12136 Checksum: 275
Satellite: RS-38 Catalog number: 35869 Epoch time: 12019.79570369 Element set: 76 Inclination: 098.6743 deg RA of node: 076.7927 deg Eccentricity: 0.0005264 Arg of perigee: 118.7773 deg Mean anomaly: 241.3927 deg Mean motion: 14.22050242 rev/day Decay rate: 1.8e-07 rev/day^2 Epoch rev: 12138 Checksum: 325
